sat.trackr.live / text

‹ back to catalog

HULIANWANG DIGUI-135

NORAD 67243 · 2025-311H

PAYLOAD ACTIVE UNKNOWN

§ Identity

Operator
Country
PRC
Launch date
2025-12-25
Launch site
WSC
Launch vehicle
Mass (kg)
RCS (m²)

External: N2YO · Heavens-Above · Gunter

§ Orbital elements

Epoch: 2026-05-25T03:45:45.145728Z

Period
108.33 min
Inclination
50.0005°
Eccentricity
0.0001034
Mean motion
13.29322627 rev/d
Perigee alt
1,148.5 km
Apogee alt
1,150.1 km
Semi-major
7,527.5 km
B*
5.2013e-5
RAAN
198.4952°
Arg perigee
246.0066°
Mean anomaly
114.0698°
Rev number
2,027

§ Raw data

HULIANWANG DIGUI-1351 67243U 25311H   26145.15677252 -.00000100  00000+0  52013-4 0  99932 67243  50.0005 198.4952 0001034 246.0066 114.0698 13.29322627 20271

JSON: /api/v1/satellites/67243 · /tle

For live sub-satellite position, see the globe view (requires WebGL).

§ Visibility from observer

Set your observer location to see the next 7 days of passes ≥ 10°. The values pass through the URL so the page stays shareable.

No JS? Fill the form by hand. The geolocation button needs JavaScript.